Weather History for Crossville, TN

Change the Weather History Date:

Monday, April 8, 2013

  Actual Average Record
Temperature  
Mean Temperature 63 °F 54 °F  
Max Temperature 72 °F 65 °F 81 °F (1959)
Min Temperature 54 °F 43 °F 20 °F (2007)
Degree Days  
Heating Degree Days 2    
Month to date heating degree days 125  
Since 1 July heating degree days 4036  
Cooling Degree Days 0    
Month to date cooling degree days 0  
Year to date cooling degree days 0  
Growing Degree Days 14 (Base 50)    
Moisture  
Dew Point 48 °F    
Average Humidity 58    
Maximum Humidity 72    
Minimum Humidity 44    
Precipitation  
Precipitation 0.00 in 0.17 in 1.04 in (1968)
Month to date precipitation 0.64 1.31  
Year to date precipitation 15.65 15.51  
Sea Level Pressure  
Sea Level Pressure 30.03 in    
Wind  
Wind Speed 6 mph (South)    
Max Wind Speed 16 mph    
Max Gust Speed 25 mph    
Visibility 10 miles    
Events      
T = Trace of Precipitation, MM = Missing Value Source: NWS Daily Summary

Daily Weather History Graph

Daily Weather History Graph

Search for Another Location

Airport:

Trip Planner

Search our weather history database for the weather conditions in past years. The results will help you decide how hot, cold, wet, or windy it might be!

Date:

Astronomy

Apr. 08, 2013 Rise Set
Actual Time 6:16 AM CDT 7:08 PM CDT
Civil Twilight 5:50 AM CDT 7:34 PM CDT
Nautical Twilight 5:19 AM CDT 8:05 PM CDT
Astronomical Twilight 4:47 AM CDT 8:37 PM CDT
Moon 5:03 AM CDT (4/8) 5:43 PM CDT (4/8)
Length of Visible Light 13h 43m
Length of Day
12h 51m
Waning Crescent, 3% of the Moon is Illuminated
Apr 8
Waning Crescent
Apr 10
New
Apr 18
First Quarter
Apr 25
Full
May 2
Last Quarter

Hourly Weather History & Observations

Time (CDT) Temp. Dew Point Humidity Pressure Visibility Wind Dir Wind Speed Gust Speed Precip Events Conditions
12:53 AM 59.0 °F 43.0 °F 55% 30.02 in 10.0 mi South 4.6 mph - N/A   Partly Cloudy
1:53 AM 59.0 °F 44.1 °F 58% 30.01 in 10.0 mi Variable 3.5 mph - N/A   Clear
2:53 AM 59.0 °F 45.0 °F 60% 30.01 in 10.0 mi South 4.6 mph - N/A   Overcast
3:53 AM 59.0 °F 45.0 °F 60% 30.01 in 10.0 mi Calm Calm - N/A   Overcast
4:53 AM 55.9 °F 46.0 °F 69% 30.02 in 10.0 mi Calm Calm - N/A   Overcast
5:53 AM 55.0 °F 46.0 °F 72% 30.04 in 10.0 mi SSE 3.5 mph - N/A   Mostly Cloudy
6:53 AM 57.0 °F 46.9 °F 69% 30.05 in 10.0 mi SSE 5.8 mph - N/A   Mostly Cloudy
7:53 AM 61.0 °F 50.0 °F 67% 30.06 in 10.0 mi Variable 6.9 mph - N/A   Clear
8:53 AM 64.0 °F 52.0 °F 65% 30.06 in 10.0 mi SSW 9.2 mph 18.4 mph N/A   Scattered Clouds
9:53 AM 66.0 °F 52.0 °F 60% 30.06 in 10.0 mi Variable 5.8 mph 16.1 mph N/A   Overcast
10:53 AM 66.0 °F 51.1 °F 59% 30.07 in 10.0 mi Variable 5.8 mph 17.3 mph N/A   Mostly Cloudy
11:53 AM 68.0 °F 51.1 °F 55% 30.06 in 10.0 mi South 13.8 mph 20.7 mph N/A   Mostly Cloudy
12:53 PM 66.9 °F 51.1 °F 57% 30.06 in 10.0 mi Variable 5.8 mph - N/A   Overcast
1:53 PM 70.0 °F 48.9 °F 47% 30.04 in 10.0 mi SSW 11.5 mph 24.2 mph N/A   Mostly Cloudy
2:53 PM 71.1 °F 50.0 °F 47% 30.02 in 10.0 mi South 8.1 mph 18.4 mph N/A   Mostly Cloudy
3:53 PM 71.1 °F 48.9 °F 45% 30.01 in 10.0 mi South 10.4 mph 24.2 mph N/A   Mostly Cloudy
4:53 PM 72.0 °F 48.0 °F 43% 30.01 in 10.0 mi South 12.7 mph 19.6 mph N/A   Partly Cloudy
5:53 PM 71.1 °F 48.9 °F 45% 29.99 in 10.0 mi SSE 9.2 mph 21.9 mph N/A   Clear
6:53 PM 69.1 °F 50.0 °F 51% 30.00 in 10.0 mi Variable 5.8 mph - N/A   Clear
7:53 PM 66.9 °F 50.0 °F 54% 30.02 in 10.0 mi Variable 4.6 mph - N/A   Clear
8:53 PM 64.9 °F 48.9 °F 56% 30.03 in 10.0 mi Calm Calm - N/A   Clear
9:53 PM 62.1 °F 48.9 °F 62% 30.04 in 10.0 mi South 5.8 mph - N/A   Clear
10:53 PM 64.0 °F 48.9 °F 58% 30.05 in 10.0 mi South 4.6 mph - N/A   Clear
11:53 PM 63.0 °F 48.9 °F 60% 30.05 in 10.0 mi South 3.5 mph - N/A   Clear